Location: Morlupo
(42.1333°N, 12.5000°E)
Time: 16:41:53
(UTC+00:00)

Lacrosse 5 rocket - Pass Details

Date: 18 September 2020
Orbit: 460 x 636 km, 57.0° (Epoch: 25 October)

Event Time Altitude Azimuth Distance (km) Brightness Sun altitude
Rises 19:48:24 0° 305° (NW) 2,809 6.2 -28.1°
Reaches altitude 10° 19:52:08 10° 338° (NNW) 1,951 4.8 -28.7°
Maximum altitude 19:53:48 12° 360° (N) 1,848 4.3 -28.9°
Enters shadow 19:55:09 11° 18° (NNE) 1,938 4.2 -29.1°
